Wind_Speed
6 11 7 6 5 1 4 3 6 3 4 8 7 9 11 10 14 11 8 7 7 6 5 11 14 18 22 25 23 22 25 13 11 14 18 19 18 20 22 24 25 24 26 28
7 8 5 4 8 7 6 4 5 8 9 5 5 7 8 11 7 6 6 7 6 7 8 14 17 18 19 19 22 25 26 21 20 22 25 20 19 23 24 26 27 24 28 28
7 3 3 5 6 9 5 1 5 7 6 1 4 3 5 4 5 8 8 7 7 8 8 9 14 15 15 16 19 23 23 21 21 22 26 22 21 28 26 32 32 28 28 27
6 7 6 8 6 6 5 4 10 13 4 3 3 3 4 4 7 8 8 8 9 9 7 11 17 21 19 18 16 16 19 17 18 21 23 23 29 27 30 33 30 32 31 32
1 5 6 6 7 5 5 17 13 8 6 4 5 4 4 7 7 13 14 12 13 10 9 11 20 24 24 25 22 21 16 15 17 18 19 24 29 31 31 27 26 27 29 29
3 2 3 3 4 1 10 8 3 3 3 1 4 3 4 5 7 12 17 17 17 16 16 23 29 31 32 34 29 28 20 23 23 23 25 27 23 25 27 27 28 31 31 29
6 3 4 4 6 7 9 6 5 5 5 5 5 4 4 8 12 14 15 17 17 17 16 16 22 29 33 33 36 21 23 28 30 30 29 24 25 27 28 30 31 30 30 29
5 5 5 5 3 4 5 5 3 5 4 10 11 6 7 8 12 12 13 15 13 15 15 17 20 26 26 30 32 31 31 33 37 35 31 26 27 31 33 35 35 34 31 30
4 3 4 4 3 3 5 5 1 4 3 3 3 3 3 23 26 29 26 22 19 17 17 18 24 31 26 27 32 35 36 36 37 31 29 34 35 35 36 38 38 37 34 33
3 5 3 5 5 7 7 3 5 4 5 6 4 5 6 18 18 20 22 22 22 21 20 18 27 30 30 30 33 37 37 37 36 37 40 37 38 39 38 38 37 38 38 36
4 1 5 4 6 4 6 4 5 2 1 2 4 2 8 13 15 19 19 21 21 23 20 20 26 30 30 33 34 34 37 36 37 36 36 39 36 39 38 36 36 39 37 38
0 3 4 1 3 5 6 4 3 4 7 4 2 6 7 17 13 17 22 21 21 21 20 24 27 31 31 33 34 34 36 32 35 36 35 35 35 35 35 36 37 37 34 35
4 3 5 5 4 6 6 5 3 2 2 3 2 7 16 17 18 22 23 22 20 22 22 18 26 27 31 34 35 35 36 33 37 35 36 38 33 33 32 36 35 33 29 29
3 3 5 4 3 1 4 3 3 3 3 4 6 20 20 17 24 26 26 23 22 22 19 19 22 29 33 35 36 36 36 37 37 37 37 36 34 34 33 33 30 32 30 28
4 2 2 5 2 2 3 3 5 2 2 3 15 18 12 20 22 23 23 23 23 22 22 22 22 28 35 37 38 37 38 38 38 37 36 32 35 33 31 33 33 31 29 30
3 1 3 3 2 6 6 6 5 9 10 8 10 12 19 18 19 21 24 24 22 22 25 25 25 34 35 36 37 39 38 39 38 35 33 35 34 32 31 29 29 31 29 31
3 1 3 3 6 2 3 7 5 10 10 5 7 17 16 23 23 24 25 23 21 24 25 25 26 33 36 39 40 38 40 39 36 36 32 34 27 30 29 28 29 28 29 30
2 3 3 3 6 2 5 5 6 11 11 1 15 19 17 20 20 21 19 16 23 26 26 25 33 37 40 43 41 41 38 39 34 35 29 28 30 27 29 27 26 27 28 30
4 4 3 2 1 4 5 6 7 12 16 5 21 22 22 23 20 17 19 24 24 24 32 33 38 40 41 42 43 41 37 35 32 30 29 29 28 27 28 27 28 28 26 31
7 6 4 3 2 2 5 6 10 5 4 11 19 18 22 23 16 18 28 32 33 37 35 38 42 39 40 42 41 36 35 33 29 29 29 29 28 26 26 27 27 26 24 20
2 3 3 1 2 6 4 6 8 6 7 22 18 19 19 15 14 23 31 30 35 35 37 42 39 37 41 40 37 33 33 29 31 29 28 28 27 25 25 29 27 26 25 27
3 4 2 2 3 3 3 5 3 7 9 15 18 19 20 20 21 21 21 25 33 35 40 40 39 41 42 41 36 32 30 34 32 29 25 24 26 27 25 23 23 25 25 28
1 5 3 6 5 2 2 5 6 7 13 14 18 20 18 20 19 19 20 26 32 35 37 38 39 39 42 41 38 32 35 35 32 26 23 25 25 20 21 24 25 24 25 27
1 3 2 3 3 4 8 5 6 12 14 17 20 18 16 16 18 20 20 26 31 34 36 38 39 38 39 41 39 34 36 31 27 25 25 25 22 25 26 26 26 25 21 22
4 2 2 4 5 8 2 8 12 15 22 21 25 23 14 17 17 20 20 28 32 33 37 37 36 37 39 41 38 37 34 29 27 24 24 23 23 26 31 33 28 27 28 24
1 3 3 4 4 5 8 8 16 14 17 21 17 16 23 22 21 27 26 31 32 34 37 38 39 39 39 40 39 37 37 27 25 21 19 22 22 22 27 31 34 38 38 39
Wind_Direction
26 63 46 37 56 172 251 258 284 245 39 13 13 43 45 59 66 60 51 50 36 21 328 30 25 19 11 6 359 352 346 323 291 300 308 306 308 316 322 321 324 325 330 332
43 45 324 122 29 27 12 333 315 304 16 13 71 70 57 47 45 51 50 33 9 353 349 358 4 3 7 6 359 355 356 340 312 313 308 290 297 310 307 308 305 313 319 321
82 320 17 76 31 15 334 348 299 267 345 54 119 56 59 13 45 34 14 348 344 333 329 329 336 340 347 349 350 348 342 342 343 339 336 301 305 306 297 309 303 296 306 308
58 342 22 33 27 30 312 360 302 302 22 238 64 210 45 322 17 26 356 347 341 336 329 323 331 331 332 326 323 330 327 327 336 335 334 322 305 301 301 307 311 296 298 302
360 17 20 39 332 332 270 298 288 280 194 144 335 84 229 40 358 10 349 354 346 334 330 324 327 330 325 327 321 319 318 323 329 328 324 315 310 312 315 311 313 316 313 315
71 55 50 294 292 129 309 313 345 42 102 91 152 138 333 31 340 356 10 354 346 341 342 340 341 341 332 330 317 321 325 326 327 323 325 317 315 317 315 312 312 312 309 311
343 22 344 9 346 358 18 356 343 356 2 245 237 360 109 63 37 17 3 352 348 340 335 329 333 334 328 324 321 323 323 322 325 323 321 317 319 318 312 309 307 309 302 304
39 332 358 332 27 317 358 52 94 296 304 288 304 186 133 68 25 18 3 342 327 327 325 323 313 324 321 326 334 331 330 329 328 322 318 318 317 318 319 313 308 306 304 302
10 266 313 28 28 45 336 26 333 285 277 333 295 11 152 8 9 5 349 339 330 322 319 312 309 321 322 324 325 322 328 327 326 324 320 319 314 316 316 317 313 310 305 303
320 313 11 308 40 35 80 341 5 5 315 299 324 2 334 1 348 340 339 333 327 321 315 322 325 321 323 320 318 316 319 319 321 318 317 315 312 312 314 311 309 308 306 305
5 57 297 28 22 16 14 36 30 281 261 264 304 284 14 347 330 336 329 324 319 317 322 320 320 320 320 319 315 312 311 309 312 314 307 309 308 306 305 298 304 302 302 300
359 150 288 250 42 70 86 84 106 121 295 253 232 283 320 344 322 326 323 320 316 312 315 315 316 314 317 317 315 315 312 306 311 309 306 305 301 300 298 299 299 299 291 297
345 14 342 7 9 15 41 21 9 248 101 245 141 287 322 330 328 321 318 314 319 317 315 312 315 314 314 315 315 312 314 310 313 310 310 307 303 305 297 300 292 295 299 296
75 90 142 207 265 269 332 39 8 82 74 278 255 301 323 336 321 321 322 319 321 316 313 316 317 316 315 314 313 313 312 313 313 309 312 306 306 306 303 301 296 298 296 291
81 131 36 277 355 29 307 40 19 30 282 152 301 307 316 319 323 319 316 318 318 315 319 319 318 316 316 315 316 315 313 314 313 311 310 309 311 308 303 298 297 296 292 291
24 19 45 301 21 6 86 44 7 348 312 275 308 313 320 320 321 326 323 319 316 318 318 318 317 315 314 314 314 314 316 315 317 314 313 308 305 309 305 304 298 299 294 293
82 75 58 283 342 338 28 353 328 292 304 300 341 323 320 323 330 324 317 310 308 314 315 314 315 314 317 316 317 316 317 321 315 314 309 311 312 311 309 310 307 305 305 302
95 72 77 265 337 38 247 9 268 316 316 45 328 326 315 312 313 311 301 303 317 317 317 318 318 320 319 320 320 320 318 319 315 311 313 316 316 312 314 311 310 312 313 305
82 90 33 90 225 288 343 336 320 316 312 342 336 320 324 322 321 315 322 326 320 316 317 319 320 319 323 323 323 319 320 318 317 318 317 317 318 314 314 314 315 310 306 305
72 74 113 50 80 258 223 278 310 313 282 342 323 317 322 330 332 321 325 322 322 324 326 323 324 325 324 321 321 319 321 319 318 319 317 316 314 313 316 321 315 315 326 339
29 20 135 171 218 280 241 292 333 24 296 319 317 312 320 319 307 305 313 321 324 325 325 325 331 332 328 326 328 325 322 320 319 320 318 319 321 323 325 325 338 52 46 48
164 126 203 78 52 317 307 360 60 272 291 305 310 312 312 312 315 317 322 324 325 327 328 335 335 332 331 333 334 330 327 327 327 327 329 331 333 334 336 346 51 54 54 59
19 178 190 169 228 260 328 279 264 282 305 307 309 309 313 318 319 323 326 325 326 328 330 337 336 332 332 335 337 333 331 332 335 339 343 342 347 10 37 54 50 55 55 64
236 160 163 45 285 285 304 282 305 315 310 307 305 310 318 320 323 326 326 327 328 331 335 339 338 337 335 338 338 338 335 342 343 348 353 2 19 47 55 57 50 51 54 67
205 125 185 260 299 314 331 334 318 318 315 313 319 320 319 324 327 328 326 328 329 333 337 342 339 338 337 338 338 339 344 351 354 357 11 29 47 62 65 60 59 60 58 71
196 173 138 237 250 216 273 285 311 315 314 317 320 324 328 332 329 331 328 328 331 335 339 344 343 340 340 340 340 343 349 354 1 7 32 46 56 65 75 79 73 71 75 77
Height
838 851 873 869 866 862 861 860 863 851 850 856 864 864 859 855 852 857 859 857 856 852 848 842 838 833 829 825 822 819 814 812 811 808 805 801 797 797 794 793 789 785 783 779
854 869 860 857 859 862 862 861 861 857 855 859 865 866 865 862 865 866 863 859 854 849 845 839 835 832 828 825 823 819 814 811 810 806 803 798 795 792 789 787 784 782 778 776
867 866 856 856 865 866 867 864 866 868 861 855 859 869 872 870 865 863 864 862 857 853 848 843 838 833 828 824 820 817 814 811 807 803 799 794 791 788 785 782 777 775 773 770
871 870 868 872 872 874 877 864 862 861 870 872 859 876 874 872 873 870 869 865 860 854 849 842 835 830 827 823 819 816 814 810 804 800 796 792 788 783 779 776 771 769 767 764
878 876 876 877 880 876 876 863 861 858 864 863 864 876 873 870 869 872 869 867 861 855 849 843 838 832 827 822 817 813 810 806 801 797 794 789 784 779 774 771 766 763 761 758
875 871 875 876 869 869 872 865 859 862 870 873 867 873 892 889 888 882 878 870 864 858 852 845 840 832 826 821 815 810 806 801 797 792 787 783 778 774 769 765 760 757 753 749
887 880 877 877 881 876 879 887 887 873 881 865 862 875 889 894 891 887 886 879 872 865 857 849 841 835 826 821 815 808 803 796 790 784 780 776 773 769 764 759 754 749 745 742
910 894 888 882 887 890 891 898 910 898 896 876 868 879 893 895 893 891 888 881 874 867 859 849 842 836 827 820 814 808 801 793 786 780 774 771 767 762 757 752 747 742 738 735
916 894 886 883 884 887 895 912 903 910 908 917 887 871 880 884 881 875 883 880 873 866 857 847 839 832 824 818 811 805 796 789 782 776 771 765 760 754 749 744 739 734 730 727
913 920 894 890 889 896 902 905 920 934 949 931 902 899 908 902 900 894 886 877 869 861 854 845 838 829 820 813 806 799 791 784 777 771 765 758 752 747 742 737 731 726 722 718
922 922 903 899 909 909 915 925 931 938 937 962 946 909 903 906 900 895 888 878 870 860 849 840 833 827 818 810 802 794 786 778 770 764 757 750 745 739 734 729 723 718 713 709
923 931 931 915 911 913 918 929 936 970 961 952 971 933 903 904 903 896 887 877 867 858 848 839 831 822 814 806 797 788 780 772 765 757 750 744 737 732 726 720 714 709 705 701
929 939 951 921 920 922 932 933 933 938 958 969 989 937 899 904 901 892 884 873 864 854 844 835 827 818 809 800 791 783 774 766 759 751 744 736 730 724 717 711 705 700 696 692
924 939 943 957 934 952 945 938 939 946 992 980 952 921 909 907 898 885 876 869 861 851 841 832 822 813 803 794 785 776 767 760 751 744 737 729 722 716 709 702 697 692 688 684
934 940 938 939 943 940 939 937 941 961 943 979 930 925 918 910 899 886 878 868 858 847 836 827 817 807 797 787 778 769 761 752 745 737 730 722 716 709 702 695 688 682 678 674
943 949 948 946 942 947 943 946 942 937 935 937 928 925 915 909 897 884 875 865 855 844 833 822 812 802 792 781 771 762 754 746 739 730 724 716 707 700 693 687 679 672 667 663
946 953 965 960 955 948 956 950 947 942 939 939 939 929 914 899 891 881 873 864 853 841 829 817 806 796 786 776 766 757 748 740 732 724 715 708 701 694 687 680 673 666 658 652
949 959 977 989 963 975 953 945 944 941 932 935 926 916 911 900 889 879 868 860 848 836 824 812 801 791 781 771 761 753 745 735 726 717 710 703 697 689 682 675 668 660 653 644
946 963 999 998 982 957 949 945 946 941 927 925 921 910 899 889 879 867 861 852 844 833 822 811 801 789 777 768 759 748 739 729 719 712 705 699 693 684 676 669 663 655 648 636
952 965 985 1011 998 967 951 943 937 931 936 923 920 910 898 888 880 865 853 847 837 828 819 807 795 785 776 764 754 743 734 724 716 709 702 695 687 680 674 667 659 651 644 638
980 996 996 989 1009 964 944 939 932 949 942 920 915 906 897 892 886 870 857 845 837 828 816 803 794 784 774 761 751 741 730 720 714 707 700 692 684 678 672 663 657 654 651 645
964 992 1001 1005 1010 963 942 939 951 942 930 923 916 907 896 886 875 866 855 845 833 823 810 800 792 781 770 759 750 740 729 719 712 704 700 693 684 677 672 667 665 663 661 657
964 964 977 971 958 944 941 941 939 935 928 919 912 901 894 885 874 865 855 844 833 824 812 803 794 780 768 757 748 739 730 720 713 705 700 692 686 681 677 675 674 673 672 670
947 950 960 957 942 942 939 938 936 930 925 916 907 899 892 884 874 865 855 844 833 823 813 803 794 782 768 758 749 742 731 724 716 708 702 697 692 689 687 686 685 684 684 684
951 948 951 954 947 942 936 936 932 926 919 912 904 896 891 882 874 866 855 844 833 824 814 805 796 785 772 760 751 742 734 728 719 713 709 705 703 700 699 698 698 697 697 696
946 947 954 956 944 947 941 933 926 922 915 906 902 894 888 882 874 865 855 845 835 824 814 805 797 786 775 764 753 744 737 731 726 720 717 715 713 711 710 710 712 713 713 712